Regional Weather Roundup
Issued by NWS

Home | Current Version | Previous Version | Text Only | Print | Product List | Glossary On
Versions: 1 2 3 4 5 6 7 8 9 10 11 12 13 14 15 16 17 18 19 20 21 22 23 24 25 26 27 28 29 30 31 32 33 34 35 36 37 38 39 40 41 42 43 44 45 46 47 48 49 50
873
ASUS45 KBOU 271707
RWRCO

WEATHER ROUNDUP FOR COLORADO
NATIONAL WEATHER SERVICE DENVER/BOULDER CO
1100 AM MDT MON MAR 27 2017

NOTE: "FAIR" INDICATES FEW OR NO CLOUDS BELOW 12000 FEET WITH NO
SIGNIFICANT WEATHER AND/OR OBSTRUCTIONS TO VISIBILITY.

COZ001>005-013-030-031-271800-
...NORTHWEST COLORADO...

CITY           SKY/WX    TMP DP  RH WIND       PRES   REMARKS
CRAIG          FAIR      50  24  36 W9        29.92F
HAYDEN         FAIR      46  25  42 NW7       29.93F
MEEKER         FAIR      48  27  44 VRB5      29.92F
MOUNT WERNER   NOT AVBL
STEAMBOAT SPGS FAIR      44  25  47 N6        29.93F
WALDEN         NOT AVBL
$$

COZ006>008-011-271800-
...WEST CENTRAL VALLEYS...

CITY           SKY/WX    TMP DP  RH WIND       PRES   REMARKS
GRAND JUNCTION CLOUDY    54  28  36 E8        29.89F
MONTROSE       PTSUNNY   51  30  44 N3        29.93F
EAGLE          NOT AVBL
RIFLE          FAIR      50  29  44 CALM      29.90F
DELTA          PTSUNNY   55  30  39 E3        29.92F
NUCLA          FAIR      50  28  43 CALM      29.96F
$$

COZ017>023-064>068-271800-
...SOUTHWEST COLORADO...

CITY           SKY/WX    TMP DP  RH WIND       PRES   REMARKS
DURANGO        FAIR      49  27  42 VRB5      30.00F
CORTEZ         FAIR      54  29  38 S10       29.95F
PAGOSA SPRINGS CLOUDY    46  27  48 SW3       30.04S
TELLURIDE      CLOUDY    41  17  38 SE3       30.01
WOLF CREEK PAS FAIR      25  25 100 S13G23    30.14R WCI  13
$$

COZ009-010-012-014-032>034-037-058>063-271800-
...CENTRAL COLORADO...

CITY           SKY/WX    TMP DP  RH WIND       PRES   REMARKS
ASPEN          FAIR      49  21  33 NW7       29.91F
BUENA VISTA    FAIR      46  18  31 SE8       29.97F
COPPER MTN     NOT AVBL
BERTHOUD PASS  FAIR      25  14  63 S5        30.05F WCI  19
COTTONWOOD PAS FAIR      43  18  36 E7        30.01F
GUNNISON       FAIR      40  26  57 NE3       30.00F
KREMMLING      FAIR      50  30  46 E3        29.95F
LEADVILLE        N/A     37  16  42 S8        29.97
MONARCH PASS   FAIR      28  18  64 SW17G24   30.17R WCI  16
SALIDA         NOT AVBL
SUNLIGHT       FAIR      32  18  55 SW6       30.04F WCI  26
WILKERSON PASS FAIR      32  16  51 SW5       30.07S WCI  27
$$

COZ069>075-271800-
...SAN LUIS VALLEY/SANGRE DE CRISTO MOUNTAINS...

CITY           SKY/WX    TMP DP  RH WIND       PRES   REMARKS
ALAMOSA        FAIR      48  28  46 SE7       30.00F
LA VETA PASS   NOT AVBL
SAGUACHE       FAIR      46  27  46 S10       30.00F
$$

COZ035-036-038>040-271800-
...NORTHERN COLORADO FRONT RANGE...

CITY           SKY/WX    TMP DP  RH WIND       PRES   REMARKS
DENVER INTL AP FAIR      51  35  54 CALM      29.92F
DMNS CITY PARK   N/A     53  31  42 N7G13     29.91F
AURORA         MOSUNNY   53  36  51 N5        29.92F
FRONT RANGE AP MOSUNNY   54  39  58 NW3       29.93F
ERIE MUNI ARPT FAIR      48  39  71 CALM      29.92F
BOULDER MUN AP FAIR      50  39  66 E3        29.91F
CENTENNIAL     FAIR      54  30  40 CALM      29.92F
BROOMFIELD     NOT AVBL
FORT COLLINS   FAIR      49  40  71 CALM      29.93F
LONGMONT       FAIR      54  40  59 E3        29.93F
$$

COZ041-046-047-076>085-087-088-271800-
...PIKES PEAK/PALMER DIVIDE AND SOUTHERN FOOTHILLS...

CITY           SKY/WX    TMP DP  RH WIND       PRES   REMARKS
COLO. SPRINGS  FAIR      50  33  52 S16       29.97F
A. F. ACADEMY  MOSUNNY   50  35  57 S14       29.95F
SCHRIEVER AFB  NOT AVBL
ELLICOTT         N/A    N/A N/A N/A S14       29.96S
FALCON         FAIR      48  31  50 S15G23    29.99S
FORT CARSON    FAIR      50  38  62 SE15      29.96S
LIMON          FAIR      54  33  45 SE12G23   29.95F
MONUMENT HILL  FAIR      46  32  57 S15G21    29.97F
TRINIDAD       FAIR      53  33  46 CALM      29.96F
$$

COZ042>045-048>051-090-091-271800-
...NORTHEAST COLORADO...

CITY           SKY/WX    TMP DP  RH WIND       PRES   REMARKS
GREELEY ARPT   FAIR      52  37  56 SW3       29.93
AKRON          FAIR      55  34  45 S9        29.93F
BURLINGTON     FAIR      56  41  57 SE8       29.96F
WRAY           NOT AVBL
STERLING       NOT AVBL
HOLYOKE        FAIR      59  41  51 S3        29.94F
FORT MORGAN    FAIR      55  36  49 SE5       29.94F
$$

COZ086-089-092>099-271800-
...SOUTHEAST COLORADO...

CITY           SKY/WX    TMP DP  RH WIND       PRES   REMARKS
PUEBLO         FAIR      53  38  56 SE6       29.95F
LA JUNTA       FAIR      55  39  54 SE5       29.97F
LAMAR          FAIR      58  37  45 CALM      29.96F
SPRINGFIELD      N/A     56  36  47 VRB5      29.98F
$$




USA.gov is the U.S. government's official web portal to all federal, state and local government web resources and services.